Regional Weather Roundup
Issued by NWS

Home | Current Version | Previous Version | Text Only | Print | Product List | Glossary On
Versions: 1 2 3 4 5 6 7 8 9 10 11 12 13 14 15 16 17 18 19 20 21 22 23 24 25 26 27 28 29 30 31 32 33 34 35 36 37 38 39 40 41 42 43 44 45 46 47 48 49 50
000
ASUS43 KLSX 300359
RWRMO

WEATHER SUMMARY FOR MISSOURI
NATIONAL WEATHER SERVICE SPRINGFIELD MO
1100 PM CDT SUN MAR 29 2015

NOTE: "FAIR" INDICATES FEW OR NO CLOUDS BELOW 12,000 FEET WITH NO
       SIGNIFICANT WEATHER AND/OR OBSTRUCTIONS TO VISIBILITY.
       CURRENT SKY AND/OR WEATHER CONDITIONS ARE NOT AVAILABLE FOR
       CHILLICOTHE AND FARMINGTON.

MOZ001>031-035>038-043-044-053-054-300500-
...NORTHERN AND WESTERN MISSOURI...

CITY           SKY/WX    TMP DP  RH WIND       PRES   REMARKS
KANSAS CTY INT CLEAR     51  34  52 W5        30.15S
KANSAS C DTWN  CLEAR     50  36  58 CALM      30.15S
LEE`S SUMMIT   CLEAR     48  35  60 W3        30.16R
ST JOSEPH      CLEAR     41  35  79 S3        30.15S
CHILLICOTHE      N/A     50  34  54 CALM      30.13R
KIRKSVILLE     CLEAR     45  35  68 W7        30.10R

$$
MOZ066>068-077>081-088>096-101>105-300500-
...SOUTHWEST MISSOURI...

CITY           SKY/WX    TMP DP  RH WIND       PRES   REMARKS
SPRINGFIELD    CLEAR     45  39  79 W3        30.14R
JOPLIN         CLEAR     50  41  71 CALM      30.17R

$$
MOZ032>034-039>042-045>050-055>058-069>072-300500-
...CENTRAL MISSOURI...

CITY           SKY/WX    TMP DP  RH WIND       PRES   REMARKS
COLUMBIA       FAIR      50  39  66 NW9       30.12R
JEFFERSON CITY CLEAR     48  40  73 CALM      30.13R
ROLLA          CLEAR     48  39  71 W7        30.10R
SEDALIA        CLEAR     49  38  65 W7        30.16R
WHITEMAN AFB   CLEAR     50  38  64 W3        30.14R
OSAGE BEACH    CLEAR     52  39  62 NW5       30.14R

$$
MOZ051-052-059>065-300500-
...EAST CENTRAL MISSOURI...

CITY           SKY/WX    TMP DP  RH WIND       PRES   REMARKS
ST LOUIS INTL  PTCLDY    53  40  61 W12       30.08R
SPIRIT OF STL  PTCLDY    46  39  76 W8        30.08R
ST CHARLES     CLEAR     51  39  63 W9        30.07R

$$
MOZ072>076-082>087-097>100-106>115-300500-
...SOUTH CENTRAL AND SOUTHEAST MISSOURI...

CITY           SKY/WX    TMP DP  RH WIND       PRES   REMARKS
CAPE GIRARDEAU CLOUDY    49  46  90 W6        30.10R
FARMINGTON     CLOUDY    48  37  66 W5        30.13R
POPLAR BLUFF   CLOUDY    51  46  83 CALM      30.10R
WEST PLAINS    CLEAR     49  41  74 W5        30.13R

$$



USA.gov is the U.S. government's official web portal to all federal, state and local government web resources and services.